Content
SEND FEEDBACK

Daily
Averages
Monthly
Summary
United States of America

ROCK HILL, NEW YORK


Home > North America > United States > New York
Elevation: 1260 feet     Latitude: 41 35N     Longitude: 074 37W

WEATHER
 
SELECT A DAY
Number of Records: 450,428;   Date Range: 1/1/95 - 10/19/14
 
SHARE

PRINT THIS DATA

[ ← Previous Day ]
WEATHER ALMANAC - FEBRUARY 5, 2014
[ Next Day → ]
[ °C ]   °F
Weather ElementAverageHighLow
Temperature22.5 °F26.6 °F (7:35 pm)19.4 °F (2:15 am)
Dewpoint17.6 °F21.2 °F (4:35 pm)14 °F (12:35 am)
Humidity81.6 %86 % (2:15 am)74 % (12:35 am)
Barometer29.84 in30.20 in (1:35 am)29.62 in (1:55 pm)
Wind Speed5.9 mph18.4 mph (8:55 am)
Wind Gust26.5 mph (8:35 am)
Weather ElementAverage
Visibility4.2 mi
Wind DirectionNE (46.5 °)

Weather ElementTotal
Precipitation---
Heating Degree Days42 (Base 65)
Averaged from 71 records on February 5, 2014
WEATHER CONDITIONS BREAKOUT
WIND DIRECTION BREAKOUT
WEATHER BY HOUR - FEBRUARY 5, 2014
[ °C ]   °F
Local TimeTemperatureDewpointHumidityBarometerVisibilityWind DirectionWind SpeedGust SpeedPrecipitationEventsConditions
12:35 AM21.2 °F14.0 °F74 %30.19 in10.0 miSE (130°)4.6 mphMostly Cloudy
12:55 AM21.2 °F14.0 °F74 %30.19 in10.0 miESE (110°)4.6 mphMostly Cloudy
1:15 AM21.2 °F15.8 °F80 %30.19 in10.0 miSSE (160°)6.9 mphOvercast
1:35 AM21.2 °F15.8 °F80 %30.20 in10.0 miCalmMostly Cloudy
1:55 AM21.2 °F15.8 °F80 %30.14 in1.2 miNE (40°)8.1 mphOvercast
2:15 AM19.4 °F15.8 °F86 %30.13 in0.5 miNE (50°)6.9 mphOvercast
2:35 AM19.4 °F14.0 °F80 %30.10 in1.2 miENE (70°)6.9 mphOvercast
2:55 AM19.4 °F15.8 °F86 %30.11 in1.0 miEast (100°)9.2 mphOvercast
3:15 AM19.4 °F15.8 °F86 %30.10 in0.5 miEast (90°)8.1 mphOvercast
3:35 AM19.4 °F15.8 °F86 %30.09 in0.5 miEast (100°)9.2 mphOvercast
3:55 AM19.4 °F15.8 °F86 %30.08 in0.2 miENE (70°)8.1 mphOvercast
4:15 AM19.4 °F15.8 °F86 %30.08 in0.5 miEast (100°)6.9 mphOvercast
4:35 AM19.4 °F15.8 °F86 %30.07 in1.2 miEast (100°)9.2 mphOvercast
4:55 AM19.4 °F15.8 °F86 %30.04 in0.8 miENE (70°)9.2 mphOvercast
5:15 AM19.4 °F15.8 °F86 %30.02 in0.8 miEast (80°)10.4 mphOvercast
5:35 AM19.4 °F15.8 °F86 %30.02 in0.5 miENE (70°)9.2 mphOvercast
5:55 AM19.4 °F15.8 °F86 %30.01 in0.8 miEast (80°)10.4 mphOvercast
6:15 AM19.4 °F15.8 °F86 %29.99 in0.8 miEast (80°)9.2 mphOvercast
6:35 AM19.4 °F15.8 °F86 %29.98 in0.8 miEast (80°)9.2 mphOvercast
6:55 AM19.4 °F15.8 °F86 %29.96 in1.0 miEast (80°)10.4 mphOvercast
7:15 AM19.4 °F15.8 °F86 %29.94 in0.8 miEast (90°)13.8 mph18.4 mphOvercast
7:35 AM21.2 °F15.8 °F80 %29.92 in1.0 miEast (90°)15.0 mph19.6 mphOvercast
7:55 AM21.2 °F15.8 °F80 %29.91 in0.8 miEast (90°)15.0 mphOvercast
8:15 AM21.2 °F15.8 °F80 %29.89 in0.8 miEast (80°)15.0 mph19.6 mphOvercast
8:35 AM21.2 °F15.8 °F80 %29.86 in1.2 miEast (90°)17.3 mph26.5 mphOvercast
8:55 AM21.2 °F15.8 °F80 %29.81 in1.5 miEast (90°)18.4 mph25.3 mphOvercast
9:15 AM21.2 °F17.6 °F86 %29.82 in10.0 miEast (100°)16.1 mph24.2 mphOvercast
9:35 AM21.2 °F15.8 °F80 %29.80 in5.0 miEast (90°)15.0 mph25.3 mphOvercast
9:55 AM21.2 °F15.8 °F80 %29.78 in2.0 miEast (80°)15.0 mph20.7 mphOvercast
10:15 AM21.2 °F17.6 °F86 %29.76 in2.5 miEast (80°)16.1 mph20.7 mphOvercast
10:35 AM21.2 °F17.6 °F86 %29.75 in10.0 miEast (90°)13.8 mph19.6 mphOvercast
10:55 AM21.2 °F15.8 °F80 %29.73 in8.0 miEast (80°)17.3 mph24.2 mphOvercast
11:15 AM23.0 °F17.6 °F80 %29.71 in1.8 miEast (90°)13.8 mph20.7 mphOvercast
11:35 AM23.0 °F17.6 °F80 %29.68 in4.0 miEast (80°)12.7 mph19.6 mphOvercast
11:55 AM23.0 °F17.6 °F80 %29.67 in4.0 miEast (100°)12.7 mphOvercast
12:15 PM23.0 °F19.4 °F86 %29.63 in5.0 miEast (90°)16.1 mph21.9 mphOvercast
12:35 PM23.0 °F17.6 °F80 %29.63 in5.0 miESE (110°)11.5 mph16.1 mphOvercast
12:55 PM24.8 °F19.4 °F80 %29.65 in3.0 miESE (120°)10.4 mphOvercast
1:15 PM24.8 °F19.4 °F80 %29.65 in2.5 miCalmOvercast
1:35 PM24.8 °F19.4 °F80 %29.64 in2.5 miCalmOvercast
1:55 PM24.8 °F19.4 °F80 %29.62 in2.5 miCalmOvercast
2:15 PM24.8 °F19.4 °F80 %29.63 in1.8 miCalmOvercast
2:35 PM24.8 °F19.4 °F80 %29.63 in2.0 miCalmOvercast
2:55 PM24.8 °F19.4 °F80 %29.63 in1.2 miCalmOvercast
3:15 PM24.8 °F19.4 °F80 %29.63 in1.8 miCalmOvercast
3:35 PM24.8 °F19.4 °F80 %29.63 in2.0 miCalmOvercast
3:55 PM24.8 °F19.4 °F80 %29.63 in0.5 miCalmOvercast
4:15 PM24.8 °F19.4 °F80 %29.62 in1.2 miCalmOvercast
4:35 PM24.8 °F21.2 °F86 %29.63 in1.8 miCalmOvercast
4:55 PM24.8 °F21.2 °F86 %29.63 in1.0 miCalmOvercast
5:15 PM24.8 °F21.2 °F86 %29.64 in1.8 miCalmOvercast
5:35 PM24.8 °F21.2 °F86 %29.65 in2.0 miCalmOvercast
5:55 PM24.8 °F21.2 °F86 %29.67 in6.0 miCalmOvercast
6:15 PM24.8 °F21.2 °F86 %29.68 in8.0 miCalmOvercast
6:35 PM24.8 °F21.2 °F86 %29.69 in4.0 miCalmOvercast
6:55 PM24.8 °F21.2 °F86 %29.70 in4.0 miCalmOvercast
7:15 PM24.8 °F21.2 °F86 %29.72 in3.0 miCalmOvercast
7:35 PM26.6 °F21.2 °F80 %29.73 in3.0 miCalmOvercast
7:55 PM26.6 °F21.2 °F80 %29.74 in5.0 miCalmOvercast
8:15 PM26.6 °F21.2 °F80 %29.75 in10.0 miCalmMostly Cloudy
8:35 PM26.6 °F19.4 °F74 %29.77 in10.0 miCalmOvercast
8:55 PM24.8 °F19.4 °F80 %29.79 in10.0 miCalmOvercast
9:15 PM24.8 °F17.6 °F74 %29.81 in10.0 miCalmMostly Cloudy
9:35 PM23.0 °F15.8 °F74 %29.82 in10.0 miCalmMostly Cloudy
9:55 PM23.0 °F17.6 °F80 %29.84 in10.0 miCalmMostly Cloudy
10:15 PM23.0 °F15.8 °F74 %29.85 in10.0 miCalmOvercast
10:35 PM23.0 °F15.8 °F74 %29.87 in10.0 miCalmOvercast
10:55 PM23.0 °F15.8 °F74 %29.89 in10.0 miCalmOvercast
11:15 PM23.0 °F15.8 °F74 %29.91 in10.0 miCalmOvercast
11:35 PM21.2 °F15.8 °F80 %29.92 in10.0 miCalmMostly Cloudy
11:55 PM21.2 °F15.8 °F80 %29.94 in10.0 miCalmMostly Cloudy
Hourly data recorded from KMSV, located miles away from Rock Hill, New York







STORIES FROM OUR PARTNERS